Location: Unspecified
(48.2082°N, 0.0000°E)
Time: 19:11:30
(UTC+00:00)

Courier 1B - Visible Passes

Search period start: 07 August 2020 00:00
Search period end: 17 August 2020 00:00
Orbit: 962 x 1209 km, 28.3° (Epoch: 07 August)

Date Brightness Start Highest point End Pass type
(mag) Time Alt. Az. Time Alt. Az. Time Alt. Az.
07 Aug 9.4 21:38:41 10° SSW 21:40:06 12° SSW 21:40:06 12° SSW visible
08 Aug 9.2 20:45:11 10° SSW 20:48:03 13° S 20:49:43 12° SSE visible
09 Aug 9.4 19:51:53 10° SSW 19:54:37 12° S 19:57:18 10° SSE visible
09 Aug 9.4 21:44:39 10° SSW 21:46:08 12° SSW 21:46:08 12° SSW visible
10 Aug 9.3 20:50:43 10° SSW 20:53:50 13° S 20:55:38 12° SSE visible
11 Aug 9.4 19:56:59 10° SSW 20:00:23 14° S 20:03:43 10° SSE visible
11 Aug 9.6 21:51:56 10° SSW 21:51:59 10° SSW 21:51:59 10° SSW visible
12 Aug 9.4 20:56:59 10° SSW 20:59:35 12° SSW 21:01:25 11° S visible
13 Aug 9.5 20:02:47 10° SW 20:06:09 14° S 20:09:25 10° SSE visible
15 Aug 9.6 20:09:23 10° SW 20:11:52 12° SSW 20:14:18 10° S visible
